EHI
0 0 0 0 0 0 0 0 0 0 0 0 1 2 3 2 2 2 1 0 0 0 0 0 0 0 0 0 0 0 0 0 0 0 0 0 0 0
0 0 0 0 0 0 0 0 0 0 0 0 1 2 3 3 2 2 1 0 0 0 0 0 0 0 0 0 0 0 0 0 0 0 0 0 0 0
0 0 0 0 0 0 0 0 0 0 0 0 0 1 2 3 3 2 1 0 0 0 0 0 0 0 0 0 0 0 0 0 0 0 0 0 0 0
0 0 0 0 0 0 0 0 0 0 0 0 0 0 1 2 2 1 0 0 0 0 0 0 0 0 0 0 0 0 0 0 0 0 0 0 0 0
0 0 0 0 0 0 0 0 0 0 0 0 0 0 0 1 1 0 0 0 0 0 0 0 0 0 0 0 0 0 0 0 0 0 0 0 0 0
0 0 0 0 0 0 0 0 0 0 0 0 0 0 0 0 0 0 0 0 0 0 0 0 0 0 0 0 0 0 0 0 0 0 0 0 0 0
0 0 0 0 0 0 0 0 0 0 0 0 0 0 0 0 0 0 0 0 0 0 0 0 0 0 0 0 0 0 0 0 0 0 0 0 0 0
0 0 0 0 0 0 0 0 0 0 0 0 0 0 0 0 0 0 0 0 0 0 0 0 0 0 0 0 0 0 0 0 0 0 0 0 0 0
0 0 0 0 0 0 0 0 0 0 0 0 0 0 0 0 0 0 0 0 0 0 0 0 0 0 0 0 0 0 0 0 0 0 0 0 0 0
0 0 0 0 0 0 0 0 0 0 0 0 0 0 0 0 0 0 0 0 0 0 0 0 0 0 0 0 0 0 0 0 0 0 0 0 0 0
0 0 0 0 0 0 0 0 0 0 0 0 0 0 0 0 0 0 0 0 0 0 0 0 0 0 0 0 0 0 0 0 0 0 0 0 0 0
0 0 0 0 0 0 0 0 0 0 0 0 0 0 0 0 0 0 0 0 0 0 0 0 0 0 0 0 0 0 0 0 0 0 0 0 0 0
0 0 0 0 0 0 0 0 0 0 0 0 0 0 0 0 0 0 0 0 0 0 0 0 0 0 0 0 0 0 0 0 0 0 0 0 0 0
0 0 0 0 0 0 0 0 0 0 0 0 0 0 0 0 0 0 0 0 0 0 0 0 0 0 0 0 0 0 0 0 0 0 0 0 0 0
0 0 0 0 0 0 0 0 0 0 0 0 0 0 0 0 0 0 0 0 0 0 0 0 0 0 0 0 0 0 0 0 0 0 0 0 0 0
0 0 0 0 0 0 0 0 0 0 0 0 0 0 0 0 0 0 0 0 0 0 0 0 0 0 0 0 0 0 0 0 0 0 0 0 0 0
0 0 0 0 0 0 0 0 0 0 0 0 0 0 0 0 0 0 0 0 0 0 0 0 0 0 0 0 0 0 0 0 0 0 0 0 0 0
0 0 0 0 0 0 0 0 0 0 0 0 0 0 0 0 0 0 0 0 0 0 0 0 0 0 0 0 0 0 0 0 0 0 0 0 0 0
0 0 0 0 0 0 0 0 0 0 0 0 0 0 0 0 0 0 0 0 0 0 0 0 0 0 0 0 0 0 0 0 0 0 0 0 0 0
0 0 0 0 0 0 0 0 0 0 0 0 0 0 0 0 0 0 0 0 0 0 0 0 0 0 0 0 0 0 0 0 0 0 0 0 0 0
0 0 0 0 0 0 0 0 0 0 0 0 0 0 0 0 0 0 0 0 0 0 0 0 0 0 0 0 0 0 0 0 0 0 0 0 0 0
0 0 0 0 0 0 0 0 0 0 0 0 0 0 0 0 0 0 0 0 0 0 0 0 0 0 0 0 0 0 0 0 0 0 0 0 0 0
0 0 0 0 0 0 0 0 0 0 0 0 0 0 0 0 0 0 0 0 0 0 0 0 0 0 0 0 0 0 0 0 0 0 0 0 0 0
Wind_Speed
4 5 5 3 4 4 4 4 4 4 3 3 2 2 1 1 2 2 3 5 5 5 5 5 5 5 5 5 6 6 6 6 6 7 7 7 6 6
3 4 4 3 3 3 4 4 5 4 2 1 2 2 2 2 3 2 3 6 5 4 4 4 4 4 4 5 6 6 6 6 6 6 6 6 6 5
3 3 3 3 3 2 3 4 4 4 3 1 1 2 2 3 3 2 3 3 4 5 4 4 4 4 4 5 5 5 6 6 6 6 6 6 5 4
3 3 3 2 2 3 2 3 3 2 3 3 2 2 2 3 3 3 2 2 3 6 5 4 4 4 4 4 5 5 5 5 5 5 5 5 5 5
2 3 3 3 3 2 3 2 2 2 2 3 2 2 2 2 3 3 3 2 2 6 6 6 5 5 4 4 5 5 5 5 4 4 4 4 4 5
2 2 2 2 2 2 2 2 2 2 3 3 3 3 3 3 3 3 3 3 2 3 4 4 6 6 5 5 5 6 6 5 5 5 5 5 5 6
2 2 2 3 4 3 2 2 2 2 3 3 3 3 3 4 3 3 3 3 2 2 3 4 5 5 6 7 8 7 7 7 7 7 7 7 7 7
2 2 1 0 1 0 1 3 3 2 2 2 3 3 4 4 3 3 3 4 3 3 2 2 2 3 3 4 7 9 9 8 8 8 8 8 9 9
2 2 1 2 1 1 2 2 1 1 1 2 3 3 4 3 3 4 3 2 1 3 2 2 2 3 3 3 9 9 9 9 9 9 9 9 9 10
2 2 2 2 3 2 2 2 2 2 0 2 2 2 2 2 3 2 2 3 2 2 2 2 2 2 3 4 10 10 10 9 10 10 10 10 10 10
2 3 3 3 5 4 1 3 4 3 4 5 4 3 3 1 1 2 3 4 3 3 3 2 2 2 3 3 7 12 10 10 11 11 11 11 11 10
2 2 4 4 4 5 1 2 3 3 3 4 4 3 4 4 4 4 3 2 2 2 3 2 2 2 2 3 3 6 8 11 13 13 12 12 11 9
1 2 4 4 3 4 3 1 2 1 3 3 4 4 4 4 5 4 2 2 2 1 1 2 2 3 3 2 3 3 4 5 7 9 13 14 14 11
2 2 3 2 2 2 1 2 1 3 2 2 2 3 3 3 3 2 2 2 3 3 2 3 4 4 4 4 3 3 3 4 5 5 5 8 13 15
3 4 2 1 2 2 3 2 4 3 1 1 1 1 1 1 2 3 4 4 5 5 5 5 5 4 5 5 4 4 4 4 5 5 6 6 6 7
0 1 4 5 4 1 4 4 3 1 1 1 1 1 2 3 4 3 3 3 3 3 4 5 5 6 6 6 5 5 5 5 5 5 6 6 7 8
3 2 2 2 3 3 2 2 2 3 3 3 2 3 3 3 3 3 3 3 4 3 3 4 5 6 6 7 6 6 6 6 6 5 6 8 8 8
5 3 2 2 2 2 2 2 3 2 2 3 3 3 3 3 3 3 4 4 4 4 3 3 4 4 6 7 7 7 6 6 6 6 8 8 8 7
5 3 2 3 3 3 2 2 2 1 2 3 3 3 3 3 3 3 4 4 4 4 4 4 5 5 7 6 5 7 7 6 7 8 8 8 9 8
5 4 3 3 3 3 3 2 2 2 3 3 3 4 4 4 4 4 4 4 4 5 5 5 6 5 6 7 7 6 9 9 7 8 9 9 9 8
4 4 4 4 3 3 3 3 3 3 4 4 4 5 4 4 4 5 5 4 5 6 6 6 4 4 6 7 8 8 7 9 9 8 10 10 10 9
4 4 3 4 4 4 4 4 4 4 5 5 5 5 5 5 6 7 6 6 6 7 7 6 5 6 8 9 10 9 9 8 9 13 14 13 10 10
5 5 5 5 5 5 5 5 6 5 5 6 5 5 6 6 6 7 7 7 7 8 8 7 7 7 9 9 10 10 11 10 9 9 9 13 17 18
Wind_Direction
269 260 258 254 256 262 264 260 257 247 218 170 176 167 172 130 137 161 122 112 113 109 104 102 105 111 119 121 119 118 120 125 134 143 150 154 157 159
288 283 266 262 254 250 256 259 260 263 255 172 159 159 167 160 154 158 125 133 130 120 114 114 113 113 119 124 126 124 122 122 128 134 141 152 162 166
293 283 276 276 269 259 252 256 258 254 243 203 137 142 167 178 158 153 150 166 139 132 129 127 126 126 126 124 125 129 129 128 130 138 147 153 156 167
304 302 304 291 276 272 263 256 255 249 231 202 179 168 169 172 163 162 151 150 133 127 136 142 146 144 138 137 138 140 139 141 147 150 157 165 177 192
318 311 308 299 281 280 274 262 249 236 221 194 181 170 165 161 163 154 144 144 149 144 147 154 154 154 157 161 161 160 160 162 163 164 170 182 194 205
333 328 313 304 293 274 267 262 242 220 201 186 178 174 166 165 178 168 163 166 166 152 141 147 150 161 171 174 176 181 183 185 188 193 201 210 218 225
350 352 8 13 7 332 307 287 234 213 198 180 176 177 167 176 185 186 167 158 157 178 167 167 171 181 179 186 194 197 200 203 206 212 218 224 228 232
359 359 38 104 100 121 356 349 332 251 208 195 183 174 173 181 176 180 178 178 163 160 197 179 186 190 193 192 174 188 201 208 214 219 225 229 233 236
10 347 4 44 298 124 149 165 91 26 290 246 177 175 175 179 182 186 193 204 126 140 205 186 192 207 213 167 165 190 204 212 219 225 229 232 234 237
21 0 18 19 15 358 106 106 101 91 117 193 155 174 159 168 202 195 157 152 155 179 217 228 201 210 213 186 173 194 208 217 222 226 229 232 235 238
42 27 18 47 25 344 102 110 108 102 76 69 64 85 85 80 300 214 189 192 176 164 191 246 226 228 227 213 180 188 206 216 222 226 229 232 235 240
82 79 57 40 21 345 29 110 118 119 124 131 133 152 168 173 215 245 238 221 189 162 154 240 238 240 239 218 195 188 207 212 219 225 227 231 230 238
50 67 69 49 10 346 327 53 80 120 151 157 159 167 174 180 193 203 243 282 291 300 152 232 268 268 267 252 239 225 227 226 218 222 222 225 222 223
16 43 72 51 357 321 347 78 222 249 191 167 170 179 188 182 173 191 213 261 284 284 270 271 275 278 280 275 266 244 240 244 247 250 248 211 214 221
25 38 23 289 241 191 173 215 234 227 195 185 182 184 184 165 201 207 212 217 233 237 229 236 254 264 271 275 278 275 271 263 254 256 258 255 250 238
297 167 213 239 247 212 190 208 229 272 286 249 229 212 202 199 214 220 221 223 233 222 209 221 240 257 263 270 271 270 269 269 264 261 268 268 262 257
320 262 243 224 216 203 190 192 209 202 214 230 230 226 220 221 218 218 235 248 254 258 238 214 219 226 249 268 273 273 274 273 272 275 268 268 265 263
291 263 258 265 264 249 227 206 207 216 225 229 231 238 242 238 232 227 233 244 254 261 263 261 255 247 242 236 231 257 268 273 277 269 269 271 272 270
261 263 264 264 267 265 259 260 255 240 254 252 250 250 247 250 249 247 249 254 258 261 262 261 261 265 273 277 255 230 263 278 278 275 272 273 276 278
246 254 255 260 263 269 271 272 259 247 249 255 255 253 253 255 256 259 258 263 273 276 271 262 259 265 277 290 293 271 237 254 266 274 280 281 280 273
244 246 250 256 261 261 264 259 258 262 267 271 266 263 259 260 263 267 269 260 264 268 271 271 275 264 273 273 272 269 264 234 239 257 274 279 280 280
267 263 259 263 262 258 254 253 250 250 251 253 257 258 258 257 259 262 267 268 265 269 274 273 260 254 260 266 272 276 275 269 245 234 242 253 271 281
273 271 265 256 251 249 252 251 253 256 254 257 262 262 262 261 260 260 261 264 269 272 274 273 269 266 269 273 276 279 280 279 275 268 252 229 227 240